CDT,Max TemperatureF,Mean TemperatureF,Min TemperatureF,Max Dew PointF,MeanDew PointF,Min DewpointF,Max Humidity, Mean Humidity, Min Humidity, Max Sea Level PressureIn, Mean Sea Level PressureIn, Min Sea Level PressureIn, Max VisibilityMiles, Mean VisibilityMiles, Min VisibilityMiles, Max Wind SpeedMPH, Mean Wind SpeedMPH, Max Gust SpeedMPH,PrecipitationIn, CloudCover, Events, WindDirDegrees
2012-10-1,75,63,51,48,38,23,76,44,17,29.94,29.90,29.88,10,8,2,21,7,31,0.00,0,,7
2012-10-2,73,60,46,46,37,30,66,44,23,29.97,29.93,29.88,10,10,5,10,6,,0.00,0,,349
2012-10-3,77,59,41,45,34,21,81,44,12,29.96,29.92,29.87,10,10,3,16,4,23,0.00,0,,176
2012-10-4,60,53,46,45,35,28,82,55,33,30.27,30.15,29.95,10,10,10,21,12,29,0.00,1,Rain,308
2012-10-5,48,40,32,34,26,18,81,59,30,30.31,30.27,30.22,10,10,10,15,7,18,0.00,1,Rain,311
2012-10-6,46,35,24,25,21,18,80,56,37,30.33,30.29,30.25,10,10,10,18,5,24,0.00,3,,329
2012-10-7,55,39,23,27,19,12,86,50,18,30.29,30.19,30.07,10,10,7,15,4,20,0.00,0,,238
2012-10-8,66,50,35,34,29,27,81,49,23,30.07,29.96,29.85,10,10,10,28,14,32,0.00,0,,199
2012-10-9,57,46,35,39,32,19,70,54,32,30.12,29.94,29.84,10,10,2,18,11,23,0.00,2,,276
2012-10-10,60,44,28,28,23,14,86,52,18,30.24,30.16,30.10,10,10,7,15,4,21,0.00,0,,240
2012-10-11,66,52,39,37,31,25,70,46,27,30.34,30.12,30.06,10,10,10,21,12,26,0.00,3,,233
2012-10-12,59,47,35,46,24,10,87,45,17,30.38,30.27,30.06,10,10,2,23,14,26,0.31,5,Rain,96
2012-10-13,73,62,51,63,58,46,94,87,69,30.02,29.82,29.66,10,7,0,28,13,32,1.28,8,Fog-Rain,172
2012-10-14,62,54,46,55,46,37,94,75,39,29.97,29.78,29.57,10,9,4,28,15,34,0.69,,Rain,313
2012-10-15,69,54,39,45,39,36,87,61,31,30.01,29.94,29.83,10,10,10,9,5,,0.00,,,175
2012-10-16,73,62,51,48,46,45,82,63,38,29.83,29.59,29.47,10,10,10,20,11,25,0.00,0,,191
2012-10-17,60,53,46,54,43,30,88,63,41,29.57,29.47,29.38,10,10,10,30,13,40,0.04,4,Rain,260
2012-10-18,48,45,42,41,33,25,87,64,43,29.52,29.48,29.44,10,9,3,34,20,50,0.20,6,Rain,270
2012-10-19,46,44,42,41,40,37,93,85,81,29.81,29.68,29.51,10,9,2,30,19,37,0.03,8,,301
2012-10-20,62,50,39,43,40,36,93,73,42,29.86,29.81,29.75,10,10,1,13,3,,0.00,2,,137
2012-10-21,78,61,44,63,53,39,87,74,51,29.84,29.80,29.77,10,10,10,20,9,24,0.00,2,,145
2012-10-22,77,68,60,66,62,57,94,85,65,29.83,29.80,29.76,10,8,2,15,8,17,1.75,5,Rain,118
2012-10-23,75,66,57,66,62,55,94,81,69,29.82,29.76,29.70,10,9,3,21,9,24,0.00,4,Rain,168
2012-10-24,77,70,62,64,64,57,88,80,65,29.80,29.75,29.69,10,10,4,20,11,25,0.00,7,,179
2012-10-25,59,47,35,55,38,25,94,82,65,30.30,29.95,29.60,10,8,2,34,16,43,0.14,8,Rain,331
2012-10-26,42,35,28,28,26,25,86,69,53,30.46,30.40,30.30,10,10,10,16,9,21,0.00,6,,329
2012-10-27,42,36,30,28,26,23,81,66,49,30.40,30.34,30.27,10,10,10,6,2,,0.00,4,,337
2012-10-28,48,38,28,27,25,21,86,62,34,30.35,30.30,30.25,10,10,10,9,2,,0.00,2,,130
2012-10-29,51,42,33,30,27,25,81,59,38,30.30,30.25,30.16,10,10,10,20,8,23,0.00,4,,138
2012-10-30,48,39,30,30,26,19,86,60,34,30.16,30.08,30.03,10,10,5,14,6,,0.00,3,,43
2012-10-31,55,42,30,34,27,21,86,57,28,30.07,30.03,29.99,10,10,10,10,6,,0.00,1,,325